Rechercher aéroport 
image banner adimage banner adimage banner ad
image banner ad

CL46 - Quail Lake Sky Park

Situé à Gorman/Lancaster, United States

ICAO - CL46, IATA -

Données fournies par Airmate  

Information générale

Coordonnées: N34°46'4" W118°43'54"
Élévation : 3370 feet MSL.
Variation magnétique : 14° East
Voir autres Aéroports à California

Données opérationnelles

Special qualification required
Heure actuelle UTC:
Heure actuelle locale:
Météo à : KWJF - General Wm J Fox Airfield ( 47 km )
METAR: KWJF 240956Z AUTO 25016KT 10SM CLR 14/04 A2986 RMK AO2 SLP100 T01390039 $
TAF: KWJF 240630Z 2407/2506 27015KT P6SM SKC FM241800 26015G25KT P6SM SCT250 FM250200 24012KT P6SM SCT250
Voir NOTAMs / SUP AIP / TFR affectant cet aéroport [VIEW]
Fréquences de communication: [VIEW]

Pistes:

Identifiant RWYQFULongueur (ft)Largeur (ft)SurfaceLDA (ft)
08310040ASPH
26310040ASPH

Coordonnées de l'aéroport

Adresse: Gorman/Lancaster United States

Vue satellite de CL46